| time (UTC) | temp F | wind direction | speed MPH | gust MPH | rain 1hr in | rain 24hr in | rain mn in | humidity % | barometer mb |
| 20260903144549 | 71 | 323 | 0.0 | 5.0 | 0.00 | 0.07 | 0.01 | 94 | 1013.6 |
| 20260903143048 | 70 | 180 | 0.0 | 3.0 | 0.00 | 0.07 | 0.01 | 95 | 1013.5 |
| 20260903141548 | 70 | 0 | 0.0 | 3.0 | 0.00 | 0.07 | 0.01 | 98 | 1013.3 |
| 20260903140107 | 69 | 0 | 0.0 | 4.0 | 0.00 | 0.07 | 0.01 | 99 | 1013.5 |
| 20260903134553 | 68 | 0 | 0.0 | 2.0 | 0.00 | 0.07 | 0.01 | 99 | 1013.3 |
| 20260903133049 | 67 | 0 | 0.0 | 0.0 | 0.00 | 0.07 | 0.01 | 100 | 1013.3 |
| 20260903131548 | 67 | 0 | 0.0 | 0.0 | 0.00 | 0.07 | 0.01 | 100 | 1013.3 |
| 20260903130050 | 66 | 0 | 0.0 | 0.0 | 0.00 | 0.07 | 0.01 | 100 | 1013.5 |
| 20260903124605 | 65 | 0 | 0.0 | 0.0 | 0.00 | 0.07 | 0.01 | 100 | 1013.8 |
| 20260903123047 | 65 | 0 | 0.0 | 0.0 | 0.00 | 0.07 | 0.01 | 100 | 1013.8 |
| 20260903121547 | 64 | 0 | 0.0 | 0.0 | 0.00 | 0.07 | 0.01 | 99 | 1013.8 |
| 20260903120101 | 64 | 0 | 0.0 | 0.0 | 0.00 | 0.07 | 0.01 | 99 | 1013.7 |
| 20260903114548 | 64 | 0 | 0.0 | 0.0 | 0.00 | 0.07 | 0.01 | 99 | 1013.8 |
| 20260903113055 | 63 | 0 | 0.0 | 0.0 | 0.00 | 0.07 | 0.01 | 100 | 1013.8 |
| 20260903111546 | 63 | 0 | 0.0 | 0.0 | 0.00 | 0.07 | 0.01 | 99 | 1013.8 |
| 20260903110050 | 62 | 0 | 0.0 | 0.0 | 0.00 | 0.07 | 0.01 | 99 | 1013.9 |
| 20260903104549 | 62 | 0 | 0.0 | 0.0 | 0.00 | 0.07 | 0.01 | 99 | 1013.7 |
| 20260903103052 | 63 | 0 | 0.0 | 0.0 | 0.00 | 0.07 | 0.01 | 99 | 1013.9 |
| 20260903101553 | 63 | 0 | 0.0 | 0.0 | 0.00 | 0.07 | 0.01 | 99 | 1013.7 |
| 20260903100052 | 63 | 0 | 0.0 | 0.0 | 0.00 | 0.07 | 0.01 | 99 | 1013.7 |
| 20260903094624 | 63 | 0 | 0.0 | 0.0 | 0.00 | 0.07 | 0.01 | 99 | 1013.5 |
| 20260903093050 | 63 | 0 | 0.0 | 0.0 | 0.00 | 0.07 | 0.01 | 99 | 1013.4 |
| 20260903091559 | 63 | 0 | 0.0 | 0.0 | 0.00 | 0.07 | 0.01 | 99 | 1013.5 |
| 20260903090049 | 63 | 0 | 0.0 | 0.0 | 0.00 | 0.07 | 0.01 | 99 | 1013.4 |
| 20260903084546 | 63 | 0 | 0.0 | 0.0 | 0.00 | 0.07 | 0.01 | 99 | 1013.6 |
| 20260903083047 | 63 | 0 | 0.0 | 0.0 | 0.00 | 0.07 | 0.01 | 99 | 1013.6 |
| 20260903081549 | 63 | 0 | 0.0 | 0.0 | 0.00 | 0.07 | 0.01 | 99 | 1013.6 |
| 20260903080057 | 63 | 0 | 0.0 | 1.0 | 0.00 | 0.07 | 0.01 | 99 | 1013.6 |
| 20260903074547 | 63 | 0 | 0.0 | 0.0 | 0.00 | 0.07 | 0.01 | 99 | 1013.6 |
| 20260903073054 | 63 | 0 | 0.0 | 0.0 | 0.00 | 0.07 | 0.01 | 99 | 1013.9 |
| 20260903071547 | 63 | 0 | 0.0 | 0.0 | 0.00 | 0.07 | 0.01 | 99 | 1013.8 |
| 20260903070046 | 63 | 0 | 0.0 | 0.0 | 0.00 | 0.07 | 0.01 | 98 | 1013.8 |
| 20260903064600 | 63 | 0 | 0.0 | 3.0 | 0.00 | 0.07 | 0.01 | 98 | 1013.8 |
| 20260903063048 | 63 | 0 | 0.0 | 3.0 | 0.00 | 0.07 | 0.01 | 98 | 1013.7 |
| 20260903061545 | 63 | 40 | 0.0 | 3.0 | 0.00 | 0.07 | 0.01 | 98 | 1013.6 |
| 20260903060056 | 63 | 0 | 0.0 | 2.0 | 0.00 | 0.07 | 0.01 | 98 | 1013.7 |
| 20260903054548 | 63 | 0 | 0.0 | 0.0 | 0.00 | 0.07 | 0.01 | 98 | 1013.8 |
| 20260903053101 | 63 | 0 | 0.0 | 2.0 | 0.00 | 0.07 | 0.01 | 98 | 1013.9 |
| 20260903051553 | 63 | 0 | 0.0 | 3.0 | 0.00 | 0.07 | 0.01 | 98 | 1014.1 |
| 20260903050051 | 63 | 0 | 0.0 | 2.0 | 0.01 | 0.07 | 0.01 | 98 | 1014.2 |
| 20260903044544 | 63 | 0 | 0.0 | 3.0 | 0.03 | 0.07 | 0.01 | 98 | 1014.3 |
| 20260903043046 | 63 | 0 | 0.0 | 4.0 | 0.05 | 0.07 | 0.01 | 97 | 1014.1 |
| 20260903041608 | 63 | 178 | 2.0 | 8.0 | 0.06 | 0.07 | 0.01 | 97 | 1013.5 |
| 20260903034549 | 63 | 0 | 0.0 | 0.0 | 0.03 | 0.03 | 0.03 | 96 | 1014.9 |
| 20260903033054 | 63 | 0 | 0.0 | 0.0 | 0.02 | 0.02 | 0.02 | 95 | 1015.3 |
| 20260903031547 | 63 | 0 | 0.0 | 3.0 | 0.01 | 0.01 | 0.01 | 94 | 1015.7 |
| 20260903030050 | 64 | 0 | 0.0 | 3.0 | 0.00 | 0.00 | 0.00 | 93 | 1015.9 |
| 20260903024547 | 64 | 0 | 0.0 | 3.0 | 0.00 | 0.00 | 0.00 | 92 | 1015.7 |
| 20260903023044 | 64 | 0 | 0.0 | 3.0 | 0.00 | 0.00 | 0.00 | 91 | 1016.0 |
| 20260903021551 | 64 | 0 | 1.0 | 5.0 | 0.00 | 0.00 | 0.00 | 91 | 1015.6 |
| 20260903020048 | 64 | 142 | 0.0 | 5.0 | 0.00 | 0.00 | 0.00 | 90 | 1016.5 |
| 20260903014550 | 65 | 0 | 1.0 | 4.0 | 0.00 | 0.00 | 0.00 | 90 | 1016.8 |
| 20260903013053 | 65 | 142 | 1.0 | 6.0 | 0.00 | 0.00 | 0.00 | 89 | 1017.0 |
| 20260903011552 | 65 | 140 | 1.0 | 7.0 | 0.00 | 0.00 | 0.00 | 89 | 1016.9 |
| 20260903010047 | 65 | 136 | 1.0 | 6.0 | 0.00 | 0.00 | 0.00 | 88 | 1017.0 |
| 20260903004554 | 65 | 99 | 2.0 | 7.0 | 0.00 | 0.00 | 0.00 | 88 | 1017.2 |
| 20260903003049 | 65 | 131 | 1.0 | 5.0 | 0.00 | 0.00 | 0.00 | 88 | 1017.0 |
| 20260903001602 | 65 | 103 | 0.0 | 9.0 | 0.00 | 0.00 | 0.00 | 88 | 1016.8 |
| 20260903000047 | 65 | 115 | 2.0 | 10.0 | 0.00 | 0.00 | 0.00 | 88 | 1016.7 |
| 20260902234546 | 65 | 123 | 4.0 | 11.0 | 0.00 | 0.00 | 0.00 | 88 | 1015.8 |
| 20260902233048 | 65 | 52 | 2.0 | 11.0 | 0.00 | 0.00 | 0.00 | 89 | 1015.8 |
| 20260902231550 | 65 | 246 | 1.0 | 7.0 | 0.00 | 0.00 | 0.00 | 89 | 1015.6 |
| 20260902230046 | 65 | 130 | 1.0 | 5.0 | 0.00 | 0.00 | 0.00 | 89 | 1016.5 |
| 20260902224555 | 66 | 92 | 0.0 | 5.0 | 0.00 | 0.00 | 0.00 | 89 | 1017.1 |
| 20260902223054 | 66 | 0 | 1.0 | 6.0 | 0.00 | 0.00 | 0.00 | 89 | 1017.4 |
| 20260902221553 | 66 | 105 | 1.0 | 5.0 | 0.00 | 0.00 | 0.00 | 89 | 1017.7 |
| 20260902220055 | 66 | 142 | 0.0 | 5.0 | 0.00 | 0.00 | 0.00 | 89 | 1017.7 |
| 20260902214545 | 66 | 0 | 0.0 | 7.0 | 0.00 | 0.00 | 0.00 | 89 | 1017.9 |
| 20260902213054 | 67 | 123 | 2.0 | 8.0 | 0.00 | 0.00 | 0.00 | 89 | 1017.9 |
| 20260902211550 | 67 | 128 | 2.0 | 6.0 | 0.00 | 0.00 | 0.00 | 89 | 1017.9 |
| 20260902210052 | 67 | 0 | 1.0 | 6.0 | 0.00 | 0.00 | 0.00 | 89 | 1018.0 |
| 20260902204547 | 67 | 123 | 1.0 | 9.0 | 0.00 | 0.00 | 0.00 | 88 | 1018.2 |
| 20260902203058 | 68 | 30 | 2.0 | 8.0 | 0.00 | 0.00 | 0.00 | 86 | 1017.9 |
| 20260902201548 | 69 | 114 | 2.0 | 9.0 | 0.00 | 0.00 | 0.00 | 86 | 1017.8 |
| 20260902200050 | 69 | 23 | 1.0 | 9.0 | 0.00 | 0.00 | 0.00 | 85 | 1018.3 |
| 20260902194600 | 70 | 11 | 2.0 | 9.0 | 0.00 | 0.00 | 0.00 | 84 | 1018.2 |
| 20260902193050 | 69 | 148 | 3.0 | 12.0 | 0.00 | 0.00 | 0.00 | 86 | 1018.0 |
| 20260902191558 | 68 | 135 | 3.0 | 16.0 | 0.00 | 0.00 | 0.00 | 87 | 1018.5 |
| 20260902190118 | 69 | 122 | 3.0 | 11.0 | 0.00 | 0.00 | 0.00 | 85 | 1018.6 |
| 20260902184543 | 68 | 34 | 2.0 | 11.0 | 0.00 | 0.00 | 0.00 | 86 | 1018.4 |
| 20260902183051 | 67 | 0 | 1.0 | 9.0 | 0.00 | 0.00 | 0.00 | 90 | 1018.5 |
| 20260902181607 | 66 | 74 | 0.0 | 7.0 | 0.00 | 0.00 | 0.00 | 91 | 1018.5 |
| 20260902180050 | 65 | 124 | 0.0 | 2.0 | 0.00 | 0.00 | 0.00 | 93 | 1018.8 |
| 20260902174547 | 63 | 0 | 0.0 | 4.0 | 0.00 | 0.00 | 0.00 | 92 | 1018.8 |
| 20260902173054 | 63 | 148 | 0.0 | 7.0 | 0.00 | 0.00 | 0.00 | 92 | 1019.1 |
| 20260902171610 | 63 | 113 | 1.0 | 7.0 | 0.00 | 0.00 | 0.00 | 92 | 1019.2 |
| 20260902170051 | 63 | 130 | 2.0 | 8.0 | 0.00 | 0.00 | 0.00 | 92 | 1018.9 |
| 20260902164548 | 63 | 136 | 2.0 | 9.0 | 0.00 | 0.00 | 0.00 | 91 | 1018.9 |
| 20260902163053 | 63 | 63 | 2.0 | 10.0 | 0.00 | 0.00 | 0.00 | 91 | 1019.2 |
| 20260902161551 | 63 | 101 | 1.0 | 9.0 | 0.00 | 0.00 | 0.00 | 92 | 1019.3 |
| 20260902160046 | 63 | 40 | 2.0 | 7.0 | 0.00 | 0.00 | 0.00 | 93 | 1019.3 |
| 20260902154547 | 63 | 0 | 1.0 | 8.0 | 0.00 | 0.00 | 0.00 | 93 | 1019.5 |
| 20260902153053 | 63 | 142 | 2.0 | 9.0 | 0.00 | 0.00 | 0.00 | 93 | 1019.7 |
| 20260902151548 | 63 | 213 | 2.0 | 6.0 | 0.00 | 0.00 | 0.00 | 93 | 1020.0 |
| 20260902150045 | 63 | 95 | 1.0 | 9.0 | 0.00 | 0.00 | 0.00 | 94 | 1019.9 |